CW9386 Weather Reports


time (UTC)temp
F
wind
direction
speed
knots
gust
knots
rain 1hr
in
rain 24hr
in
rain mn
in
humidity
%
barometer
mb
20260503233656 75 165 6.1 9.6 0.00 0.00 0.00 33 1015.1
20260503232652 75 175 4.3 10.4 0.00 0.00 0.00 33 1015.1
20260503231640 75 196 6.1 9.6 0.00 0.00 0.00 34 1015.3
20260503230658 75 204 6.1 9.6 0.00 0.00 0.00 34 1015.5
20260503225653 75 194 2.6 9.6 0.00 0.00 0.00 34 1015.4
20260503224648 74 134 3.5 10.4 0.00 0.00 0.00 34 1015.8
20260503223639 75 161 2.6 9.6 0.00 0.00 0.00 35 1016.0
20260503222655 75 190 3.5 12.2 0.00 0.00 0.00 34 1016.1
20260503220639 75 236 4.3 7.8 0.00 0.00 0.00 34 1016.6
20260503215655 75 210 1.7 4.3 0.00 0.00 0.00 35 1016.7
20260503214646 75 164 1.7 10.4 0.00 0.00 0.00 34 1016.9
20260503211656 75 172 5.2 10.4 0.00 0.00 0.00 34 1017.8
20260503210654 75 167 4.3 11.3 0.00 0.00 0.00 35 1018.1
20260503205645 75 161 3.5 12.2 0.00 0.00 0.00 34 1018.2
20260503204641 74 186 6.1 9.6 0.00 0.00 0.00 34 1017.8
20260503203655 74 171 4.3 10.4 0.00 0.00 0.00 35 1018.0
20260503202645 73 181 3.5 12.2 0.00 0.00 0.00 34 1018.4
20260503201644 73 159 7.0 10.4 0.00 0.00 0.00 35 1018.6
20260503200642 73 167 7.8 12.2 0.00 0.00 0.00 34 1018.6
20260503195653 73 154 5.2 10.4 0.00 0.00 0.00 33 1018.7
20260503194651 74 186 6.1 12.2 0.00 0.00 0.00 33 1018.9
20260503193643 73 226 4.3 12.2 0.00 0.00 0.00 34 1018.9
20260503192637 73 190 4.3 9.6 0.00 0.00 0.00 35 1019.0
20260503191649 72 229 5.2 9.6 0.00 0.00 0.00 35 1019.1
20260503190639 72 234 3.5 7.8 0.00 0.00 0.00 36 1019.3
20260503185651 72 27 0.0 3.5 0.00 0.00 0.00 38 1019.4
20260503184647 72 283 0.9 3.5 0.00 0.00 0.00 37 1019.5
20260503183645 72 217 2.6 4.3 0.00 0.00 0.00 39 1019.5
20260503182642 71 151 0.0 1.7 0.00 0.00 0.00 40 1019.7
20260503181634 70 102 1.7 5.2 0.00 0.00 0.00 40 1020.1
20260503180648 70 253 2.6 7.0 0.00 0.00 0.00 41 1020.3
20260503175644 70 182 2.6 4.3 0.00 0.00 0.00 42 1020.4
20260503174639 69 311 1.7 6.1 0.00 0.00 0.00 43 1020.4
20260503173653 69 281 2.6 5.2 0.00 0.00 0.00 43 1020.7
20260503172650 69 236 2.6 4.3 0.00 0.00 0.00 44 1020.7
20260503171644 69 312 0.9 3.5 0.00 0.00 0.00 43 1021.0
20260503170634 68 9 2.6 3.5 0.00 0.00 0.00 45 1021.1
20260503150639 57 340 1.7 2.6 0.00 0.00 0.00 73 1021.7
20260503110625 51 78 0.0 0.0 0.00 0.00 0.00 82 1020.8
20260503081622 54 82 0.9 1.7 0.00 0.05 0.00 75 1021.6
20260503080638 54 83 0.9 2.6 0.00 0.05 0.00 74 1021.6
20260503071640 56 105 0.9 2.6 0.00 0.05 0.00 66 1022.3
20260503054634 56 86 0.9 2.6 0.00 0.05 0.05 67 1021.6
20260503053646 57 329 0.0 1.7 0.00 0.05 0.05 70 1021.6
20260503051636 57 29 1.7 3.5 0.00 0.05 0.05 69 1021.7
20260503050641 57 41 1.7 3.5 0.00 0.05 0.05 69 1021.7
20260503045650 58 14 1.7 4.3 0.00 0.05 0.05 68 1021.8
20260503044648 58 43 1.7 7.0 0.00 0.05 0.05 67 1021.6
20260503043643 59 16 2.6 3.5 0.00 0.05 0.05 66 1021.7
20260503041638 60 350 1.7 2.6 0.00 0.05 0.05 63 1021.7
20260503040649 60 317 0.9 1.7 0.00 0.05 0.05 62 1021.5
20260503032633 61 122 0.9 2.6 0.00 0.05 0.05 55 1021.4
20260503030642 62 95 1.7 2.6 0.00 0.05 0.05 54 1020.5
20260503025642 62 78 0.0 2.6 0.00 0.06 0.05 54 1020.4
20260503024634 62 93 0.9 2.6 0.00 0.06 0.05 54 1020.2
20260503023633 63 79 0.9 4.3 0.00 0.06 0.05 52 1020.2
20260503022631 63 39 2.6 3.5 0.00 0.06 0.05 51 1020.0
20260503021645 64 69 1.7 4.3 0.00 0.06 0.05 50 1020.1
20260503015644 65 88 2.6 5.2 0.00 0.12 0.05 47 1020.4
20260503013647 66 75 0.9 6.1 0.00 0.12 0.05 44 1020.2
20260503012644 66 57 3.5 7.8 0.00 0.12 0.05 42 1020.0
20260503011635 67 76 3.5 7.0 0.00 0.12 0.05 41 1019.9
20260503010628 68 11 2.6 5.2 0.00 0.12 0.05 40 1019.8
20260503005647 69 88 0.0 2.6 0.00 0.12 0.05 39 1019.8
20260503003638 69 42 2.6 7.0 0.00 0.12 0.05 38 1019.9
20260503001643 70 11 0.9 5.2 0.00 0.12 0.05 39 1019.8
20260503000638 70 344 2.6 4.3 0.00 0.12 0.05 39 1019.7
20260502235631 70 319 0.9 2.6 0.00 0.12 0.05 39 1019.8